ASY456 NZOH-NZWN

Flight info

Callsign ASY456
Flight time N/A
Altitude 20000
Route OH1S/27 OH PM V242 DOGAD PHOWD PENCW 412131S1744813E NZWN 411811S1744830E BAXOV Q235 AVKEX Q169 KAPTI OH
Aircraft F35/M-SADILOTUV/C

Departure

Time 2026-04-25 04:48
Airport RNZAF Base Ohakea (NZOH)

Arrival

Time N/A
Airport Wellington International Airport (NZWN)
Time Latitude Longitude Altitude Speed Heading
2026-04-25 04:48 -40.32827 175.62067 16287 ft 493 kts 150°
2026-04-25 04:48 -40.35982 175.63754 16654 ft 494 kts 168°
2026-04-25 04:48 -40.39070 175.63608 17875 ft 425 kts 196°
2026-04-25 04:49 -40.41885 175.62077 19119 ft 443 kts 207°
2026-04-25 04:49 -40.44625 175.60103 19724 ft 454 kts 208°
2026-04-25 04:49 -40.47347 175.58074 19949 ft 452 kts 209°
2026-04-25 04:49 -40.50114 175.56107 20132 ft 451 kts 207°
2026-04-25 04:50 -40.52884 175.54159 20220 ft 453 kts 207°
2026-04-25 04:50 -40.55638 175.52152 20258 ft 452 kts 208°
2026-04-25 04:50 -40.58365 175.50095 20254 ft 453 kts 209°
2026-04-25 04:50 -40.61084 175.48015 20253 ft 451 kts 208°
2026-04-25 04:51 -40.63851 175.46058 20257 ft 452 kts 206°
2026-04-25 04:51 -40.66665 175.44209 20250 ft 451 kts 205°
2026-04-25 04:51 -40.69518 175.42474 20250 ft 452 kts 203°
2026-04-25 04:51 -40.72380 175.40762 20262 ft 453 kts 204°
2026-04-25 04:52 -40.75230 175.38994 20256 ft 452 kts 205°
2026-04-25 04:52 -40.78009 175.37060 20248 ft 454 kts 211°
2026-04-25 04:52 -40.80577 175.34646 20230 ft 453 kts 217°
2026-04-25 04:52 -40.83051 175.32064 20239 ft 455 kts 218°
2026-04-25 04:53 -40.85500 175.29431 20245 ft 453 kts 218°
2026-04-25 04:53 -40.87920 175.26746 20258 ft 455 kts 219°
2026-04-25 04:53 -40.90317 175.24012 19954 ft 456 kts 220°
2026-04-25 04:53 -40.92682 175.21308 18554 ft 442 kts 219°
2026-04-25 04:54 -40.94989 175.18693 17087 ft 433 kts 219°
2026-04-25 04:54 -40.97300 175.16204 15718 ft 425 kts 217°
2026-04-25 04:54 -40.99615 175.13841 14459 ft 415 kts 216°
2026-04-25 04:54 -41.01892 175.11555 13192 ft 407 kts 217°
2026-04-25 04:55 -41.04116 175.09295 12332 ft 401 kts 217°
2026-04-25 04:55 -41.06317 175.07068 11771 ft 394 kts 216°
2026-04-25 04:55 -41.08525 175.04856 11744 ft 397 kts 216°
2026-04-25 04:55 -41.10739 175.02640 11695 ft 400 kts 216°
2026-04-25 04:56 -41.12957 175.00418 10428 ft 402 kts 216°
2026-04-25 04:56 -41.15200 174.98138 8281 ft 408 kts 217°
2026-04-25 04:56 -41.17444 174.95815 6287 ft 412 kts 217°
2026-04-25 04:56 -41.19639 174.93612 5841 ft 375 kts 218°
2026-04-25 04:57 -41.21752 174.91567 3772 ft 386 kts 214°
2026-04-25 04:57 -41.24287 174.90189 2157 ft 394 kts 197°
2026-04-25 04:57 -41.26858 174.89281 1649 ft 372 kts 197°
2026-04-25 04:57 -41.29345 174.88340 1520 ft 369 kts 199°
2026-04-25 04:58 -41.31794 174.87334 1300 ft 363 kts 199°
2026-04-25 04:58 -41.34228 174.86397 1179 ft 365 kts 193°
2026-04-25 04:58 -41.36717 174.85781 1106 ft 366 kts 191°
2026-04-25 04:58 -41.39173 174.85025 1074 ft 358 kts 197°
2026-04-25 04:59 -41.40656 174.84361 1299 ft 324 kts 197°
2026-04-25 04:59 -41.43623 174.84815 1405 ft 379 kts 150°
2026-04-25 04:59 -41.44961 174.86308 1476 ft 370 kts 125°
2026-04-25 04:59 -41.45693 174.89506 1644 ft 363 kts 83°
2026-04-25 05:00 -41.44445 174.92126 3114 ft 353 kts 21°
2026-04-25 05:00 -41.41667 174.90851 3236 ft 349 kts 293°
2026-04-25 05:00 -41.41503 174.88757 2850 ft 354 kts 259°
2026-04-25 05:00 -41.43066 174.86351 2839 ft 372 kts 206°
2026-04-25 05:01 -41.45600 174.85981 3061 ft 375 kts 165°
2026-04-25 05:01 -41.47743 174.89264 3300 ft 375 kts 88°
2026-04-25 05:01 -41.47153 174.91415 3500 ft 371 kts 43°
2026-04-25 05:01 -41.44861 174.91938 3173 ft 353 kts 325°
2026-04-25 05:02 -41.43200 174.89620 2701 ft 346 kts 311°
2026-04-25 05:02 -41.41635 174.87193 2423 ft 342 kts 311°
2026-04-25 05:02 -41.40095 174.84784 2136 ft 339 kts 311°
2026-04-25 05:02 -41.38553 174.82390 1750 ft 342 kts 311°
2026-04-25 05:03 -41.36788 174.80176 1334 ft 362 kts 340°
2026-04-25 05:03 -41.34170 174.80615 581 ft 396 kts
2026-04-25 05:03 -41.32048 174.80757 298 ft 271 kts
2026-04-25 05:03 -41.30443 174.80252 2660 ft 261 kts 306°
2026-04-25 05:04 -41.29562 174.77445 3639 ft 362 kts 290°
2026-04-25 05:04 -41.28690 174.74157 4126 ft 401 kts 290°
2026-04-25 05:04 -41.27758 174.70611 4895 ft 385 kts 289°
2026-04-25 05:04 -41.26912 174.67373 5605 ft 371 kts 288°
2026-04-25 05:05 -41.26055 174.64085 6314 ft 379 kts 287°
2026-04-25 05:05 -41.25178 174.60726 7035 ft 385 kts 287°
2026-04-25 05:05 -41.24290 174.57337 7760 ft 390 kts 287°
2026-04-25 05:05 -41.23382 174.53914 8322 ft 393 kts 287°
2026-04-25 05:06 -41.22428 174.50492 8294 ft 393 kts 288°
2026-04-25 05:06 -41.21408 174.47142 8622 ft 368 kts 291°
2026-04-25 05:06 -41.20286 174.43897 11313 ft 396 kts 293°
2026-04-25 05:06 -41.19013 174.40579 14154 ft 411 kts 296°
2026-04-25 05:07 -41.17548 174.37169 16931 ft 447 kts 298°
2026-04-25 05:07 -41.16430 174.33311 18682 ft 462 kts 274°
2026-04-25 05:07 -41.17314 174.29393 19213 ft 450 kts 225°